| time (UTC) | temp F | wind direction | speed knots | gust knots | rain 1hr in | rain 24hr in | rain mn in | humidity % | barometer mb |
| 20260901010049 | 80 | 321 | 3.5 | 7.0 | 0.00 | 0.00 | 0.00 | 49 | 1007.2 |
| 20260901004541 | 79 | 321 | 3.5 | 7.0 | 0.00 | 0.00 | 0.00 | 52 | 1007.4 |
| 20260901003048 | 79 | 325 | 2.6 | 5.2 | 0.00 | 0.00 | 0.00 | 55 | 1007.7 |
| 20260901001540 | 79 | 327 | 2.6 | 4.3 | 0.00 | 0.00 | 0.00 | 54 | 1008.0 |
| 20260901000037 | 80 | 327 | 2.6 | 7.0 | 0.00 | 0.00 | 0.00 | 53 | 1008.2 |
| 20260831234540 | 80 | 329 | 2.6 | 5.2 | 0.00 | 0.00 | 0.00 | 49 | 1008.3 |
| 20260831233037 | 80 | 327 | 3.5 | 7.0 | 0.00 | 0.00 | 0.00 | 49 | 1008.5 |
| 20260831231540 | 81 | 329 | 2.6 | 7.8 | 0.00 | 0.00 | 0.00 | 48 | 1008.8 |
| 20260831230038 | 81 | 330 | 2.6 | 7.0 | 0.00 | 0.00 | 0.00 | 51 | 1009.0 |
| 20260831224538 | 80 | 331 | 2.6 | 5.2 | 0.00 | 0.00 | 0.00 | 49 | 1009.2 |
| 20260831223042 | 80 | 331 | 3.5 | 7.8 | 0.00 | 0.00 | 0.00 | 46 | 1009.5 |
| 20260831221543 | 80 | 331 | 3.5 | 7.0 | 0.00 | 0.00 | 0.00 | 47 | 1009.7 |
| 20260831220036 | 80 | 332 | 3.5 | 7.8 | 0.00 | 0.00 | 0.00 | 45 | 1009.9 |
| 20260831214541 | 81 | 334 | 3.5 | 7.8 | 0.00 | 0.00 | 0.00 | 42 | 1010.1 |
| 20260831213044 | 81 | 331 | 4.3 | 8.7 | 0.00 | 0.00 | 0.00 | 39 | 1010.6 |
| 20260831211543 | 81 | 328 | 4.3 | 9.6 | 0.00 | 0.00 | 0.00 | 38 | 1010.6 |
| 20260831210040 | 80 | 336 | 4.3 | 10.4 | 0.00 | 0.00 | 0.00 | 39 | 1010.9 |
| 20260831204539 | 80 | 338 | 4.3 | 8.7 | 0.00 | 0.00 | 0.00 | 40 | 1011.2 |
| 20260831203041 | 79 | 333 | 3.5 | 9.6 | 0.00 | 0.00 | 0.00 | 41 | 1011.4 |
| 20260831201552 | 78 | 342 | 5.2 | 8.7 | 0.00 | 0.00 | 0.00 | 42 | 1011.8 |
| 20260831200043 | 77 | 349 | 4.3 | 8.7 | 0.00 | 0.00 | 0.00 | 42 | 1012.1 |
| 20260831194626 | 76 | 348 | 3.5 | 7.8 | 0.00 | 0.00 | 0.00 | 45 | 1012.3 |
| 20260831193036 | 76 | 351 | 3.5 | 7.8 | 0.00 | 0.00 | 0.00 | 46 | 1012.6 |
| 20260831191538 | 74 | 5 | 3.5 | 8.7 | 0.00 | 0.00 | 0.00 | 47 | 1012.9 |
| 20260831190042 | 73 | 5 | 3.5 | 8.7 | 0.00 | 0.00 | 0.00 | 49 | 1013.3 |
| 20260831184543 | 72 | 11 | 3.5 | 7.8 | 0.00 | 0.00 | 0.00 | 50 | 1013.5 |
| 20260831183043 | 71 | 14 | 4.3 | 8.7 | 0.00 | 0.00 | 0.00 | 51 | 1013.8 |
| 20260831181545 | 70 | 15 | 4.3 | 11.3 | 0.00 | 0.00 | 0.00 | 52 | 1014.0 |
| 20260831180036 | 70 | 18 | 5.2 | 10.4 | 0.00 | 0.00 | 0.00 | 53 | 1014.0 |
| 20260831174543 | 69 | 9 | 4.3 | 9.6 | 0.00 | 0.00 | 0.00 | 52 | 1014.3 |
| 20260831173040 | 68 | 352 | 5.2 | 9.6 | 0.00 | 0.00 | 0.00 | 56 | 1014.4 |
| 20260831171544 | 67 | 352 | 4.3 | 8.7 | 0.00 | 0.00 | 0.00 | 58 | 1014.5 |
| 20260831170040 | 66 | 352 | 4.3 | 8.7 | 0.00 | 0.00 | 0.00 | 59 | 1014.6 |
| 20260831164535 | 65 | 348 | 5.2 | 10.4 | 0.00 | 0.00 | 0.00 | 55 | 1014.6 |
| 20260831163040 | 64 | 338 | 4.3 | 8.7 | 0.00 | 0.00 | 0.00 | 57 | 1014.9 |
| 20260831161541 | 62 | 333 | 4.3 | 9.6 | 0.00 | 0.00 | 0.00 | 58 | 1015.0 |
| 20260831160043 | 61 | 320 | 4.3 | 7.8 | 0.00 | 0.00 | 0.00 | 57 | 1015.3 |
| 20260831154604 | 60 | 319 | 2.6 | 7.0 | 0.00 | 0.00 | 0.00 | 59 | 1015.3 |
| 20260831153042 | 58 | 319 | 3.5 | 7.0 | 0.00 | 0.00 | 0.00 | 61 | 1015.3 |
| 20260831151536 | 57 | 319 | 3.5 | 7.0 | 0.00 | 0.00 | 0.00 | 65 | 1015.3 |
| 20260831150041 | 56 | 319 | 4.3 | 7.8 | 0.00 | 0.00 | 0.00 | 63 | 1015.2 |
| 20260831144546 | 55 | 306 | 2.6 | 6.1 | 0.00 | 0.00 | 0.00 | 65 | 1015.1 |
| 20260831143036 | 54 | 306 | 5.2 | 8.7 | 0.00 | 0.00 | 0.00 | 66 | 1014.7 |
| 20260831141543 | 52 | 256 | 3.5 | 7.8 | 0.00 | 0.00 | 0.00 | 69 | 1014.6 |
| 20260831140039 | 51 | 250 | 2.6 | 6.1 | 0.00 | 0.00 | 0.00 | 70 | 1014.8 |
| 20260831134542 | 50 | 248 | 1.7 | 4.3 | 0.00 | 0.00 | 0.00 | 71 | 1014.6 |
| 20260831133049 | 50 | 248 | 2.6 | 6.1 | 0.00 | 0.00 | 0.00 | 73 | 1014.6 |
| 20260831131536 | 49 | 248 | 1.7 | 4.3 | 0.00 | 0.00 | 0.00 | 73 | 1014.7 |
| 20260831130039 | 50 | 248 | 1.7 | 3.5 | 0.00 | 0.00 | 0.00 | 73 | 1014.5 |
| 20260831124540 | 50 | 248 | 1.7 | 4.3 | 0.00 | 0.00 | 0.00 | 73 | 1014.5 |
| 20260831123042 | 50 | 248 | 2.6 | 7.0 | 0.00 | 0.00 | 0.00 | 74 | 1014.3 |
| 20260831121545 | 50 | 211 | 2.6 | 5.2 | 0.00 | 0.00 | 0.00 | 74 | 1014.4 |
| 20260831120042 | 51 | 207 | 1.7 | 3.5 | 0.00 | 0.00 | 0.00 | 74 | 1014.3 |
| 20260831114550 | 51 | 207 | 1.7 | 3.5 | 0.00 | 0.00 | 0.00 | 74 | 1014.2 |
| 20260831113040 | 51 | 206 | 1.7 | 3.5 | 0.00 | 0.00 | 0.00 | 74 | 1014.4 |
| 20260831111544 | 51 | 206 | 0.9 | 3.5 | 0.00 | 0.00 | 0.00 | 74 | 1014.5 |
| 20260831110040 | 52 | 206 | 1.7 | 3.5 | 0.00 | 0.00 | 0.00 | 73 | 1014.4 |
| 20260831104543 | 53 | 206 | 1.7 | 3.5 | 0.00 | 0.00 | 0.00 | 72 | 1014.3 |
| 20260831103040 | 54 | 205 | 1.7 | 4.3 | 0.00 | 0.00 | 0.00 | 70 | 1014.3 |
| 20260831101540 | 56 | 205 | 1.7 | 3.5 | 0.00 | 0.00 | 0.00 | 66 | 1014.4 |
| 20260831100100 | 56 | 205 | 1.7 | 3.5 | 0.00 | 0.00 | 0.00 | 65 | 1014.4 |
| 20260831094536 | 56 | 205 | 1.7 | 3.5 | 0.00 | 0.00 | 0.00 | 65 | 1014.5 |
| 20260831093041 | 57 | 205 | 1.7 | 3.5 | 0.00 | 0.00 | 0.00 | 64 | 1014.7 |
| 20260831091546 | 57 | 205 | 1.7 | 2.6 | 0.00 | 0.00 | 0.00 | 63 | 1014.8 |
| 20260831090037 | 57 | 205 | 1.7 | 3.5 | 0.00 | 0.00 | 0.00 | 65 | 1014.9 |
| 20260831084556 | 56 | 205 | 1.7 | 2.6 | 0.00 | 0.00 | 0.00 | 68 | 1015.0 |
| 20260831083042 | 56 | 205 | 0.0 | 4.3 | 0.00 | 0.00 | 0.00 | 68 | 1015.0 |
| 20260831081537 | 56 | 202 | 1.7 | 3.5 | 0.00 | 0.00 | 0.00 | 67 | 1014.8 |
| 20260831080038 | 57 | 202 | 1.7 | 3.5 | 0.00 | 0.00 | 0.00 | 67 | 1014.8 |
| 20260831074549 | 57 | 0 | 0.0 | 0.0 | 0.00 | 0.00 | 0.00 | 67 | 1014.8 |
| 20260831073043 | 59 | 0 | 0.0 | 3.5 | 0.00 | 0.00 | 0.00 | 63 | 1014.9 |
| 20260831071536 | 59 | 202 | 1.7 | 3.5 | 0.00 | 0.00 | 0.00 | 61 | 1014.9 |
| 20260831070040 | 60 | 202 | 1.7 | 3.5 | 0.00 | 0.00 | 0.00 | 61 | 1014.9 |
| 20260831064539 | 60 | 202 | 1.7 | 3.5 | 0.00 | 0.00 | 0.00 | 61 | 1014.9 |
| 20260831063039 | 61 | 202 | 1.7 | 3.5 | 0.00 | 0.00 | 0.00 | 60 | 1014.9 |
| 20260831061540 | 61 | 202 | 1.7 | 3.5 | 0.00 | 0.00 | 0.00 | 59 | 1014.9 |
| 20260831060058 | 62 | 202 | 1.7 | 3.5 | 0.00 | 0.00 | 0.00 | 58 | 1015.0 |
| 20260831054537 | 62 | 202 | 0.9 | 2.6 | 0.00 | 0.00 | 0.00 | 58 | 1015.0 |
| 20260831053041 | 63 | 202 | 1.7 | 3.5 | 0.00 | 0.00 | 0.00 | 56 | 1015.0 |
| 20260831051543 | 63 | 202 | 0.9 | 2.6 | 0.00 | 0.00 | 0.00 | 55 | 1015.0 |
| 20260831050057 | 63 | 202 | 1.7 | 2.6 | 0.00 | 0.00 | 0.00 | 56 | 1015.0 |
| 20260831044543 | 63 | 202 | 1.7 | 2.6 | 0.00 | 0.00 | 0.00 | 57 | 1015.1 |
| 20260831043044 | 62 | 202 | 0.9 | 2.6 | 0.00 | 0.00 | 0.00 | 59 | 1015.1 |
| 20260831041551 | 62 | 202 | 0.9 | 2.6 | 0.00 | 0.00 | 0.00 | 60 | 1015.0 |
| 20260831040037 | 62 | 202 | 1.7 | 2.6 | 0.00 | 0.00 | 0.00 | 60 | 1015.1 |
| 20260831034540 | 62 | 202 | 0.9 | 2.6 | 0.00 | 0.00 | 0.00 | 62 | 1015.2 |
| 20260831033042 | 63 | 0 | 0.0 | 2.6 | 0.00 | 0.00 | 0.00 | 61 | 1014.9 |
| 20260831031543 | 64 | 202 | 0.9 | 2.6 | 0.00 | 0.00 | 0.00 | 60 | 1014.8 |
| 20260831030040 | 65 | 202 | 0.0 | 1.7 | 0.00 | 0.00 | 0.00 | 59 | 1014.6 |
| 20260831024541 | 66 | 202 | 0.0 | 1.7 | 0.00 | 0.00 | 0.00 | 56 | 1014.5 |
| 20260831023041 | 68 | 0 | 0.0 | 2.6 | 0.00 | 0.00 | 0.00 | 54 | 1014.6 |
| 20260831021544 | 70 | 202 | 0.9 | 2.6 | 0.00 | 0.00 | 0.00 | 51 | 1014.8 |
| 20260831020039 | 71 | 202 | 1.7 | 2.6 | 0.00 | 0.00 | 0.00 | 49 | 1014.7 |
| 20260831014540 | 72 | 202 | 1.7 | 4.3 | 0.00 | 0.00 | 0.00 | 47 | 1014.6 |
| 20260831013052 | 74 | 202 | 2.6 | 4.3 | 0.00 | 0.00 | 0.00 | 46 | 1014.5 |
| 20260831011537 | 74 | 202 | 1.7 | 4.3 | 0.00 | 0.00 | 0.00 | 40 | 1014.8 |